Clinton, IA

3:35 AM CDT on March 29, 2017 (GMT -0500)
Clinton Municipal

Weather History for KCWI - September, 2013

Change the Weather History Date:

Friday, September 20, 2013

  Actual Average Record
Temperature  
Mean Temperature 61 °F -  
Max Temperature 69 °F 74 °F 89 °F (1959)
Min Temperature 51 °F 52 °F 30 °F (1962)
Degree Days  
Heating Degree Days 4    
Growing Degree Days 11 (Base 50)    
Moisture  
Dew Point 55 °F    
Average Humidity 75    
Maximum Humidity 94    
Minimum Humidity 49    
Precipitation  
Precipitation 0.03 in - - ()
Sea Level Pressure  
Sea Level Pressure 29.89 in    
Wind  
Wind Speed 10 mph (West)    
Max Wind Speed 17 mph    
Max Gust Speed 24 mph    
Visibility 10 miles    
Events      
Averages and records for this station are not official NWS values.
T = Trace of Precipitation, MM = Missing Value Source: NWS Daily Summary

Daily Weather History Graph

Daily Weather History Graph

Search for Another Location

Airport or City:

Trip Planner

Search our weather history database for the weather conditions in past years. The results will help you decide how hot, cold, wet, or windy it might be!

Date:

Astronomy

Sep. 20, 2013 Rise Set
Actual Time 6:46 AM CDT 7:01 PM CDT
Civil Twilight 6:19 AM CDT 7:29 PM CDT
Nautical Twilight 5:46 AM CDT 8:01 PM CDT
Astronomical Twilight 5:12 AM CDT 8:35 PM CDT
Moon 7:33 PM CDT (9/20) 8:03 AM CDT (9/20)
Length of Visible Light 13h 10m
Length of Day
12h 14m
Full, 98% of the Moon is Illuminated
Sep 20
Full
Sep 26
Last Quarter
Oct 4
New
Oct 11
First Quarter
Oct 18
Full

Hourly Weather History & Observations

Time (CDT) Temp. Dew Point Humidity Pressure Visibility Wind Dir Wind Speed Gust Speed Precip Events Conditions
12:15 AM 66.2 °F 62.6 °F 88% 29.88 in 10.0 mi WSW 10.4 mph - N/A   Mostly Cloudy
12:35 AM 66.2 °F 62.6 °F 88% 29.87 in 10.0 mi SW 8.1 mph - 0.01 in   Overcast
12:55 AM 66.2 °F 62.6 °F 88% 29.86 in 10.0 mi SW 6.9 mph - 0.01 in   Mostly Cloudy
1:15 AM 66.2 °F 62.6 °F 88% 29.84 in 10.0 mi SSW 5.8 mph - 0.02 in   Overcast
1:35 AM 66.2 °F 62.6 °F 88% 29.84 in 10.0 mi WSW 6.9 mph - 0.02 in   Mostly Cloudy
1:55 AM 66.2 °F 62.6 °F 88% 29.84 in 10.0 mi SW 8.1 mph - 0.02 in   Partly Cloudy
2:15 AM 66.2 °F 62.6 °F 88% 29.84 in 10.0 mi WSW 9.2 mph - N/A   Clear
2:35 AM 64.4 °F 62.6 °F 94% 29.83 in 10.0 mi WSW 9.2 mph - N/A   Clear
2:55 AM 66.2 °F 62.6 °F 88% 29.83 in 10.0 mi West 11.5 mph - N/A   Mostly Cloudy
3:15 AM 66.2 °F 62.6 °F 88% 29.83 in 10.0 mi WSW 10.4 mph - N/A   Overcast
3:35 AM 66.2 °F 62.6 °F 88% 29.84 in 9.0 mi WSW 10.4 mph 16.1 mph N/A   Overcast
3:55 AM 66.2 °F 62.6 °F 88% 29.83 in 10.0 mi West 10.4 mph - N/A   Overcast
4:15 AM 66.2 °F 62.6 °F 88% 29.84 in 10.0 mi WSW 11.5 mph 17.3 mph N/A   Overcast
4:35 AM 66.2 °F 62.6 °F 88% 29.83 in 10.0 mi West 10.4 mph - N/A   Overcast
4:55 AM 66.2 °F 62.6 °F 88% 29.83 in 10.0 mi WSW 10.4 mph - N/A   Overcast
5:15 AM 66.2 °F 62.6 °F 88% 29.83 in 10.0 mi WSW 10.4 mph - N/A   Overcast
5:35 AM 66.2 °F 62.6 °F 88% 29.84 in 10.0 mi West 10.4 mph - N/A   Overcast
5:55 AM 66.2 °F 62.6 °F 88% 29.84 in 10.0 mi West 10.4 mph - N/A   Overcast
6:15 AM 64.4 °F 62.6 °F 94% 29.85 in 10.0 mi West 9.2 mph - N/A   Scattered Clouds
6:35 AM 64.4 °F 62.6 °F 94% 29.86 in 10.0 mi West 9.2 mph - N/A   Partly Cloudy
6:55 AM 62.6 °F 60.8 °F 94% 29.86 in 10.0 mi WNW 10.4 mph - N/A   Partly Cloudy
7:15 AM 62.6 °F 59.0 °F 88% 29.87 in 10.0 mi West 9.2 mph - N/A   Clear
7:35 AM 62.6 °F 57.2 °F 82% 29.88 in 10.0 mi West 8.1 mph - N/A   Clear
7:55 AM 62.6 °F 57.2 °F 82% 29.88 in 10.0 mi West 10.4 mph - N/A   Clear
8:15 AM 60.8 °F 57.2 °F 88% 29.90 in 10.0 mi West 11.5 mph - N/A   Clear
8:35 AM 62.6 °F 57.2 °F 82% 29.90 in 10.0 mi West 10.4 mph - N/A   Clear
8:55 AM 62.6 °F 55.4 °F 77% 29.90 in 10.0 mi WNW 11.5 mph - N/A   Clear
9:15 AM 60.8 °F 55.4 °F 82% 29.90 in 10.0 mi WNW 12.7 mph 19.6 mph N/A   Clear
9:35 AM 62.6 °F 55.4 °F 77% 29.91 in 10.0 mi WNW 17.3 mph 20.7 mph N/A   Clear
9:55 AM 62.6 °F 55.4 °F 77% 29.91 in 10.0 mi WNW 12.7 mph 17.3 mph N/A   Partly Cloudy
10:15 AM 62.6 °F 55.4 °F 77% 29.91 in 10.0 mi WNW 11.5 mph - N/A   Partly Cloudy
10:35 AM 64.4 °F 55.4 °F 73% 29.91 in 10.0 mi WNW 13.8 mph - N/A   Clear
10:55 AM 64.4 °F 53.6 °F 68% 29.91 in 10.0 mi WNW 11.5 mph - N/A   Clear
11:15 AM 64.4 °F 53.6 °F 68% 29.91 in 10.0 mi WNW 10.4 mph 17.3 mph N/A   Clear
11:35 AM 66.2 °F 53.6 °F 64% 29.90 in 10.0 mi West 13.8 mph 18.4 mph N/A   Clear
11:55 AM 66.2 °F 51.8 °F 60% 29.90 in 10.0 mi WNW 11.5 mph - N/A   Clear
12:15 PM 68.0 °F 50.0 °F 52% 29.89 in 10.0 mi WNW 13.8 mph 21.9 mph N/A   Clear
12:35 PM 69.8 °F 51.8 °F 53% 29.89 in 10.0 mi West 13.8 mph 20.7 mph N/A   Clear
12:55 PM 68.0 °F 51.8 °F 56% 29.89 in 10.0 mi WNW 15.0 mph - N/A   Clear
1:15 PM 68.0 °F 48.2 °F 49% 29.89 in 10.0 mi WNW 15.0 mph 20.7 mph N/A   Clear
1:35 PM 68.0 °F 48.2 °F 49% 29.89 in 10.0 mi WNW 17.3 mph 20.7 mph N/A   Clear
1:55 PM 68.0 °F 50.0 °F 52% 29.89 in 10.0 mi WNW 12.7 mph - N/A   Clear
2:15 PM 66.2 °F 50.0 °F 56% 29.89 in 10.0 mi NW 16.1 mph - N/A   Partly Cloudy
2:35 PM 66.2 °F 50.0 °F 56% 29.90 in 10.0 mi WNW 17.3 mph 24.2 mph N/A   Mostly Cloudy
2:55 PM 66.2 °F 48.2 °F 52% 29.90 in 10.0 mi WNW 13.8 mph 19.6 mph N/A   Mostly Cloudy
3:15 PM 64.4 °F 48.2 °F 56% 29.90 in 10.0 mi WNW 15.0 mph - N/A   Mostly Cloudy
3:35 PM 64.4 °F 48.2 °F 56% 29.90 in 10.0 mi WNW 16.1 mph - N/A   Overcast
3:55 PM 64.4 °F 48.2 °F 56% 29.90 in 10.0 mi WNW 13.8 mph - N/A   Mostly Cloudy
4:15 PM 64.4 °F 48.2 °F 56% 29.90 in 10.0 mi WNW 11.5 mph - N/A   Mostly Cloudy
4:35 PM 64.4 °F 48.2 °F 56% 29.90 in 10.0 mi NW 12.7 mph - N/A   Mostly Cloudy
4:55 PM 64.4 °F 48.2 °F 56% 29.90 in 10.0 mi NW 15.0 mph 20.7 mph N/A   Mostly Cloudy
5:15 PM 64.4 °F 50.0 °F 59% 29.90 in 10.0 mi WNW 13.8 mph 19.6 mph N/A   Overcast
5:35 PM 64.4 °F 48.2 °F 56% 29.90 in 10.0 mi WNW 13.8 mph 18.4 mph N/A   Overcast
5:55 PM 62.6 °F 48.2 °F 59% 29.90 in 10.0 mi WNW 10.4 mph 17.3 mph N/A   Overcast
6:15 PM 62.6 °F 48.2 °F 59% 29.90 in 10.0 mi WNW 6.9 mph - N/A   Overcast
6:35 PM 62.6 °F 50.0 °F 63% 29.91 in 10.0 mi WNW 8.1 mph - N/A   Overcast
6:55 PM 60.8 °F 50.0 °F 68% 29.91 in 10.0 mi West 8.1 mph - N/A   Overcast
7:15 PM 60.8 °F 50.0 °F 68% 29.91 in 10.0 mi West 10.4 mph - N/A   Overcast
7:35 PM 60.8 °F 51.8 °F 72% 29.91 in 10.0 mi West 8.1 mph - N/A   Overcast
7:55 PM 60.8 °F 51.8 °F 72% 29.92 in 10.0 mi West 6.9 mph - N/A   Overcast
8:15 PM 60.8 °F 51.8 °F 72% 29.91 in 10.0 mi West 8.1 mph - N/A   Overcast
8:35 PM 60.8 °F 51.8 °F 72% 29.91 in 10.0 mi WNW 6.9 mph - N/A   Overcast
8:55 PM 59.0 °F 51.8 °F 77% 29.91 in 10.0 mi WNW 6.9 mph - N/A   Scattered Clouds
9:15 PM 57.2 °F 50.0 °F 77% 29.91 in 10.0 mi West 6.9 mph - N/A   Clear
9:35 PM 55.4 °F 50.0 °F 82% 29.91 in 10.0 mi WNW 6.9 mph - N/A   Clear
9:55 PM 53.6 °F 50.0 °F 88% 29.92 in 10.0 mi WNW 5.8 mph - N/A   Clear
10:15 PM 53.6 °F 48.2 °F 82% 29.92 in 10.0 mi WNW 6.9 mph - N/A   Clear
10:35 PM 53.6 °F 50.0 °F 88% 29.93 in 10.0 mi WNW 6.9 mph - N/A   Clear
10:55 PM 53.6 °F 48.2 °F 82% 29.92 in 10.0 mi WNW 6.9 mph - N/A   Clear
11:15 PM 53.6 °F 48.2 °F 82% 29.93 in 10.0 mi WNW 6.9 mph - N/A   Clear
11:35 PM 53.6 °F 48.2 °F 82% 29.93 in 10.0 mi NW 6.9 mph - N/A   Clear
11:55 PM 51.8 °F 48.2 °F 88% 29.92 in 10.0 mi WNW 6.9 mph - N/A   Clear